This is the latest recevied weather packets stored in our database for station/object KG5MMT-15. If no packets are shown the sender has not sent any weather packets the latest 10 day(s).
| Time | Temp. | Humidity | Pressure | Rain* | Wind** | Luminosity | Snow |
|---|---|---|---|---|---|---|---|
| 1787961479 | 26.11° C | 43% | 0 hPa | 0 mm | - | - | - |
| 1787961178 | 26.11° C | 42% | 0 hPa | 0 mm | - | - | - |
| 1787960879 | 26.11° C | 41% | 0 hPa | 0 mm | - | - | - |
| 1787960579 | 26.11° C | 45% | 0 hPa | 0 mm | - | - | - |
| 1787960279 | 26.67° C | 46% | 0 hPa | 0 mm | - | - | - |
| 1787959979 | 26.67° C | 41% | 0 hPa | 0 mm | - | - | - |
| 1787959679 | 27.22° C | 38% | 0 hPa | 0 mm | - | - | - |
| 1787959379 | 27.78° C | 37% | 0 hPa | 0 mm | - | - | - |
| 1787959079 | 27.22° C | 35% | 0 hPa | 0 mm | - | - | - |
| 1787958779 | 27.22° C | 33% | 0 hPa | 0 mm | - | - | - |
| 1787958479 | 26.67° C | 34% | 0 hPa | 0 mm | - | - | - |
| 1787958179 | 26.67° C | 34% | 0 hPa | 0 mm | - | - | - |
| 1787957879 | 26.67° C | 36% | 0 hPa | 0 mm | - | - | - |
| 1787957579 | 26.67° C | 39% | 0 hPa | 0 mm | - | - | - |
| 1787957279 | 26.11° C | 41% | 0 hPa | 0 mm | - | - | - |
| 1787956979 | 25.56° C | 43% | 0 hPa | 0 mm | - | - | - |
| 1787956679 | 25° C | 44% | 0 hPa | 0 mm | - | - | - |
| 1787956379 | 24.44° C | 49% | 0 hPa | 0 mm | - | - | - |
| 1787956079 | 23.33° C | 50% | 0 hPa | 0 mm | - | - | - |
| 1787955779 | 22.78° C | 52% | 0 hPa | 0 mm | - | - | - |
| 1787955479 | 22.22° C | 50% | 0 hPa | 0 mm | - | - | - |
| 1787955179 | 23.33° C | 49% | 0 hPa | 0 mm | - | - | - |
| 1787954879 | 23.33° C | 43% | 0 hPa | 0 mm | - | - | - |
| 1787954579 | 23.89° C | 46% | 0 hPa | 0 mm | - | - | - |
| 1787954279 | 23.89° C | 41% | 0 hPa | 0 mm | - | - | - |
* Rain latest hour (hover to see other rain measurements)
** Current wind speed in m/s (hover to see current wind gust speed)